FENGYUN 1C DEB

Satellite information

Favourite Embed

Satellite Type and Status

DEBRISIN ORBIT

Key statistics

Satellite FENGYUN 1C DEB at a glance.

Uptime

9499

Days in orbit

Revolutions

≈ 13.6

Per day

Orbit

SSO

Sun Synchronous Orbit

Inclination

98.8

Latest

Satellite identification and parameters

Extended collection of information and parameters for FENGYUN 1C DEB.

Object identification

Identified? True

Debris? True

Object name: FENGYUN 1C DEB

International designator: 1999-025BJF

Object number (NORAD): 31177

Object ID (CCSDS): 31177

Country: PEOPLES REPUBLIC OF CHINA (PRC)

Current information (Y/N): Y

RCS size: SMALL

Orbital parameters

Period: 105.863 minutes

Inclination: 98.7613 deg

SMA: 7412.904 km

Apoapsis: 1261.565 km

Periapsis: 807.972 km

RAAN: 66.7024 deg

Eccentricy: 0.0305948

Argument of periapsis: 155.2836 deg

Mean anomaly: 357.0487 deg

Mean motion: 13.60254694 rev/day

Mean motion (dot): 0.00002859 rev/day2

B* drag term: 0.0028353 1/REarth

Two-line elements (TLE)

Creation date: May 11, 2025, 10:21 p.m.

Reference frame: TEME

Reference center: EARTH

Epoch: May 11, 2025, 7:42 a.m. UTC

TLE line 0: 0 FENGYUN 1C DEB

TLE line 1: 1 31177U 99025BJF 25131.32097731 .00002859 00000-0 28353-2 0 9995

TLE line 2: 2 31177 98.7613 66.7024 0305948 155.2836 357.0487 13.60254694632813

Live tracking on map

Real-time ground track for satellite FENGYUN 1C DEB.

In-orbit conjunctions

A list of the most updated potential collisions computed for object FENGYUN 1C DEB.

Target Orbit TCA Probability of collision Miss distance Type
CALSPHERE 4(A) LEO 2025-01-03 03:41:56 0.0001201907 275.0 (m) PAYLOAD

Associated space launch

Chinese polar orbiting meteorological satellite

FENGYUN 1C DEB was lifted into orbit during the mission ‘Long March 4B | Feng Yun 1C’, on board a Long March 4B space rocket.

The launch took place on May 10, 1999, 1:33 a.m. from Launch Complex 7.

For more information about the launch, click the button.

Launch to space Long March 4B | Feng Yun 1C
Long March 4B | Feng Yun 1C

Agency: N/A

Status: Launch Successful

Launch date: May 10, 1999, 1:33 a.m. UTC

Rocket: Long March 4B

Launch pad: Launch Complex 7

Location: Taiyuan Satellite Launch Center, People's Republic of China

...

Latest news about this satellite

There are no fresh news available about this satellite. Check back as we update our databases every day.


Newsletter sign-up

Weekly statistics, charts and insights to help you stay on top of the space industry.